Notices

What's New in latest Release from April 7th, 2021:

- Updated Glossary, including Speed of Maximum Gust, and Total Hourly Precipitation

- Updated national and regional climate services offices contacts and prices information

- Addition of station inventory lists for 1981-2010, 1971-2000, and 1961-1990 Normals.

If you haven't already, please take our survey and provide feedback about our website: https://eccc.sondage-survey.ca/f/LanguageSelection.aspx?s=442ca660-fcf1-47c0-95a9-59707d6fd709

Hourly Data Report for April 01, 2020

MIRAMICHI RCS
NEW BRUNSWICK
Current Station Operator: ECCC - MSC

47°00'34.000" N
65°27'54.000" W
33.00 m
8100989
71744
ACQ

Download Data

Hourly Data (April 2020)
Hourly Data Report for April 1, 2020
TIME
LST
Temp Definition
°C
Dew Point Definition
°C
Rel Hum Definition
%
Precip. Amount Definition
mm

Wind Dir Definition
10's deg

Wind Spd Definition
km/h
Visibility Definition
km
Stn Press Definition
kPa
Hmdx Definition


Wind Chill Definition


Weather Definition


00:00 0.0 -0.9 94 LegendMM 5 19   101.19   -5 LegendNANA
01:00 0.0 -0.8 95 LegendMM 4 17   101.14   -5 LegendNANA
02:00 -0.1 -0.7 96 LegendMM 4 15   101.12   -5 LegendNANA
03:00 -0.3 -1.0 95 LegendMM 4 14   101.07   -5 LegendNANA
04:00 -0.4 -1.2 95 LegendMM 4 14   101.04   -5 LegendNANA
05:00 -0.3 -1.4 92 LegendMM 4 15   101.03   -5 LegendNANA
06:00 -0.5 -1.2 95 LegendMM 5 14   101.02   -5 LegendNANA
07:00 -0.4 -1.2 94 LegendMM 5 15   101.04   -5 LegendNANA
08:00 -0.3 -1.0 95 LegendMM 5 15   101.05   -5 LegendNANA
09:00 0.1 -0.7 94 LegendMM 5 14   101.05     LegendNANA
10:00 0.4 -0.5 94 LegendMM 6 18   101.05     LegendNANA
11:00 0.4 -0.5 94 LegendMM 5 18   101.02     LegendNANA
12:00 0.9 -0.2 92 LegendMM 5 19   100.95     LegendNANA
13:00 1.1 0.4 95 LegendMM 5 19   100.89     LegendNANA
14:00 1.6 0.9 95 LegendMM 5 18   100.86     LegendNANA
15:00 1.9 1.2 95 LegendMM 5 17   100.83     LegendNANA
16:00 2.0 1.3 95 LegendMM 4 13   100.81     LegendNANA
17:00 1.9 1.3 96 LegendMM 3 14   100.73     LegendNANA
18:00 1.8 1.1 95 LegendMM 3 13   100.71     LegendNANA
19:00 1.6 1.2 98 LegendMM 3 13   100.63     LegendNANA
20:00 1.6 1.3 98 LegendMM 4 14   100.63     LegendNANA
21:00 1.5 1.1 97 LegendMM 4 16   100.59     LegendNANA
22:00 1.2 1.0 99 LegendMM 4 10   100.56     LegendNANA
23:00 1.0 0.9 99 LegendMM 3 7   100.51     LegendNANA

Notes on Data Quality.

Legend

  • E = Estimated
  • M = Missing
  • NA = Not Available*
  • [empty] = Indicates an unobserved value
Date modified: